Overview Statistics Trail Chart Weather Telemetry Raw packets
 

This is the latest recevied weather packets stored in our database for station/object IW5CTE-13. If no packets are shown the sender has not sent any weather packets the latest 10 day(s).

<< 1 2 3 4 5 >>
Time Temp. Humidity Pressure Rain* Wind** Luminosity Snow
1788556835 26.11° C 62% 1019.2 hPa - - - -
1788556234 26.11° C 60% 1019.4 hPa - - - -
1788555634 26.11° C 58% 1019.5 hPa - - - -
1788555034 26.11° C 57% 1019.5 hPa - - - -
1788554440 26.11° C 54% 1019.5 hPa - - - -
1788553834 26.67° C 57% 1019.5 hPa - - - -
1788553234 26.67° C 59% 1019.6 hPa - - - -
1788552634 27.22° C 59% 1019.5 hPa - - - -
1788552034 27.22° C 57% 1019.5 hPa - - - -
1788551434 27.22° C 55% 1019.5 hPa - - - -
1788550343 27.22° C 54% 1019.3 hPa - - - -
1788549744 27.78° C 61% 1019.4 hPa - - - -
1788549143 27.22° C 59% 1019.2 hPa - - - -
1788548543 27.78° C 58% 1019.3 hPa - - - -
1788547944 28.33° C 62% 1019.1 hPa - - - -
1788547344 28.89° C 74% 1019 hPa - - - -
1788546744 28.89° C 73% 1018.9 hPa - - - -
1788546163 29.44° C 72% 1018.7 hPa - - - -
1788545544 29.44° C 70% 1018.5 hPa - - - -
1788544944 29.44° C 69% 1018.4 hPa - - - -
1788544344 30° C 67% 1018.3 hPa - - - -
1788543744 30° C 67% 1018.2 hPa - - - -
1788543145 30° C 65% 1018.2 hPa - - - -
1788542544 30° C 63% 1018.3 hPa - - - -
1788541943 30° C 64% 1018.3 hPa - - - -

* Rain since midnight (hover to see other rain measurements)
** Current wind speed in m/s (hover to see current wind gust speed)